User: anonymous   Login
Location: Unspecified
(0.0000°N, 0.0000°E)
Time: 11:57:13
(UTC+02:00)
Language:

Meteor 1-10 Rocket - Orbit

View from above orbital plane
View from above orbital plane
View from above satellite
View from above satellite

Ground track
Ground track

The orbit data is extracted from the following two-line orbital elements,

1 05732U 71120B   16145.15863714  .00000222  00000-0  12649-3 0  9991
2 05732  81.2494 138.9299 0052165  57.5164 303.1031 14.05919396284276
Epoch (UTC): 24 May 2016 03:48:26
Eccentricity: 0.0052165
inclination: 81.2494°
perigee height: 835 km
apogee height: 911 km
right ascension of ascending node: 138.9299°
argument of perigee: 57.5164°
revolutions per day: 14.05919396
mean anomaly at epoch: 303.1031°
orbit number at epoch: 28427

The dashed part of the orbit path shows where the satellite is in the earth's shadow,  

DLR